[[{"header":{"parameterUnit":"m.s-1","parameterCategory":2,"la1":30.2991,"la2":30.254,"lo1":-89.0895,"lo2":-89.0444,"dy":0.0017,"dx":0.0017,"nx":28,"ny":28,"refTime":"2024-12-21T03:00:00:Z","depth":"0","parameterNumber":2,"parameterNumberName":"U-component_of_CURRENTS"},"data":[0,0,0,0,0,0,0,0,0,0,0,0,0,0,0,0,0,0,0,0,0,0,0,0,0,0,0,0,0,0,0,0,0,0,0,0,0,0,0,0,0,0,0,0,0,0,0,0,0,0,0,0,0,0,0,0,0,0,-0.1882,-0.1882,0,-0.1905,-0.1905,-0.1906,-0.1892,-0.1892,-0.1891,-0.1891,-0.1957,-0.1959,-0.1961,0,0,0,0,0,0,0,0,0,0,0,0,0,-0.1847,-0.1848,-0.1882,-0.1883,-0.1883,-0.1905,-0.1905,-0.1906,-0.1892,-0.1892,-0.1891,-0.189,-0.1956,-0.1959,-0.1962,0,0,0,0,0,0,0,0,0,0,0,0,0,-0.1865,-0.1848,-0.1882,-0.1879,-0.1879,-0.1905,-0.1905,-0.1906,-0.1893,-0.1892,-0.1891,-0.189,-0.1955,-0.1959,-0.1962,-0.2001,0,0,-0.1973,-0.1974,0,0,0,0,0,0,0,0,-0.1864,-0.1866,-0.1879,-0.188,-0.188,-0.1896,-0.1918,-0.194,-0.1893,-0.1887,-0.1891,-0.189,-0.1942,-0.1946,-0.1951,-0.2004,-0.2007,-0.1973,-0.1975,-0.1977,-0.1978,0,0,0,0,0,0,0,-0.1863,-0.1865,-0.1891,-0.188,-0.188,-0.1884,-0.1886,-0.1922,-0.1919,-0.1887,-0.1887,-0.1891,-0.1942,-0.1947,-0.1952,-0.2008,-0.1973,-0.1976,-0.1978,-0.198,-0.207,-0.207,0,0,0,0,0,0,-0.1861,-0.1864,-0.189,-0.1891,-0.187,-0.1886,-0.1887,-0.1891,-0.1918,-0.1921,-0.1891,-0.189,-0.1942,-0.1948,-0.1955,-0.1974,-0.1977,-0.198,-0.1982,-0.2069,-0.207,-0.207,0,0,0,0,0,0,-0.1861,-0.1863,-0.1889,-0.1879,-0.1882,-0.1887,-0.1892,-0.1892,-0.1894,-0.192,-0.1924,-0.1893,-0.1942,-0.195,-0.1975,-0.1978,-0.1981,-0.1985,-0.2069,-0.2069,-0.207,-0.2032,0,0,0,0,0,0,-0.1859,-0.1863,-0.1863,-0.1879,-0.1883,-0.1899,-0.1893,-0.1893,-0.1898,-0.1897,-0.1924,-0.1928,-0.1941,-0.1969,-0.1978,-0.1983,-0.1987,-0.2069,-0.2069,-0.207,-0.2033,-0.2031,-0.2029,0,0,0,0,0,-0.1858,-0.1863,-0.1863,-0.1866,-0.1884,-0.1899,-0.1902,-0.1902,-0.1899,-0.19,-0.1913,-0.1927,-0.1979,-0.1972,-0.1983,-0.1988,-0.2068,-0.2069,-0.207,-0.2033,-0.2031,-0.2029,0,0,0,0,0,0,-0.1848,-0.1862,-0.1863,-0.1871,-0.1882,-0.1897,-0.1899,-0.1904,-0.1915,-0.1914,-0.1934,-0.1941,-0.1962,-0.1985,-0.1977,-0.2016,-0.2026,-0.2029,-0.1995,-0.1993,-0.1992,-0.1986,-0.199,0,0,0,0,0,-0.1847,-0.1851,-0.1867,-0.1873,-0.1879,-0.189,-0.1896,-0.1899,-0.1913,-0.1916,-0.1933,-0.1955,-0.1976,-0.199,-0.2014,-0.2042,-0.2043,-0.2053,-0.2051,-0.2049,-0.2052,-0.205,-0.2048,-0.2072,-0.2072,-0.2072,0,0,-0.1845,-0.1853,-0.1855,-0.187,-0.1878,-0.1891,-0.1891,-0.1902,-0.191,-0.1926,-0.1939,-0.1953,-0.1982,-0.2002,-0.2015,-0.202,-0.204,-0.205,-0.2048,-0.2052,-0.205,-0.2048,-0.2045,-0.2073,-0.2073,-0.2073,0,0,-0.1846,-0.185,-0.1855,-0.1866,-0.188,-0.189,-0.1893,-0.1909,-0.1911,-0.193,-0.1937,-0.1946,-0.199,-0.1997,-0.2011,-0.202,-0.203,-0.2035,-0.2025,-0.2022,-0.202,-0.2018,-0.1996,-0.1992,-0.2035,-0.2035,-0.2035,0,-0.1843,-0.1851,-0.1859,-0.187,-0.1878,-0.189,-0.1901,-0.191,-0.1929,-0.1934,-0.193,-0.1967,-0.1984,-0.2003,-0.1998,-0.2015,-0.2012,-0.2026,-0.2018,-0.2016,-0.2014,-0.1993,-0.199,-0.2033,-0.2034,-0.2034,-0.2034,0,-0.1849,-0.1857,-0.1862,-0.1877,-0.1888,-0.1899,-0.1915,-0.1923,-0.1928,-0.1935,-0.1948,-0.1959,-0.1979,-0.1984,-0.1995,-0.1998,-0.1997,-0.2012,-0.2017,-0.2009,-0.1988,-0.1984,-0.2031,-0.2031,-0.2032,-0.2032,0,0,-0.1838,-0.1862,-0.1863,-0.187,-0.1893,-0.1902,-0.1918,-0.1933,-0.1942,-0.1947,-0.1954,-0.1967,-0.1965,-0.1981,-0.1989,-0.1984,-0.1957,-0.1993,-0.1993,-0.1961,-0.1937,-0.1945,-0.1942,-0.197,-0.197,-0.197,-0.1919,0,-0.1839,-0.1856,-0.187,-0.1886,-0.1895,-0.1913,-0.1928,-0.1943,-0.1951,-0.1961,-0.1961,-0.1973,-0.1968,-0.1974,-0.1965,-0.1972,-0.1951,-0.1968,-0.196,-0.1959,-0.1958,-0.194,-0.1957,-0.1915,-0.1916,-0.1915,-0.1915,0,-0.1835,-0.1848,-0.1862,-0.1888,-0.1895,-0.1907,-0.1927,-0.1943,-0.1962,-0.197,-0.1973,-0.1979,-0.1974,-0.197,-0.1951,-0.1965,-0.1944,-0.1936,-0.1935,-0.1956,-0.1962,-0.1928,-0.1909,-0.1898,-0.191,-0.1911,-0.1911,0,-0.1809,-0.1839,-0.1847,-0.1856,-0.189,-0.1898,-0.1915,-0.1939,-0.1953,-0.197,-0.1982,-0.1979,-0.1981,-0.1961,-0.1945,-0.1948,-0.1921,-0.1924,-0.1901,-0.1901,-0.1922,-0.1924,-0.1886,-0.1894,-0.1894,-0.1894,-0.1894,0,-0.1796,-0.1801,-0.1834,-0.1837,-0.1851,-0.1881,-0.1896,-0.1917,-0.1946,-0.1964,-0.1979,-0.1992,-0.198,-0.1969,-0.1944,-0.1916,-0.1916,-0.1893,-0.1891,-0.1908,-0.191,-0.1909,-0.1903,-0.1892,-0.1893,-0.1893,-0.1893,0,-0.1756,-0.178,-0.1791,-0.1826,-0.1836,-0.1842,-0.1882,-0.1894,-0.1932,-0.1955,-0.1962,-0.1994,-0.1992,-0.1971,-0.1944,-0.1918,-0.1867,-0.1875,-0.1887,-0.1888,-0.1862,-0.1854,-0.1759,-0.1724,-0.1837,-0.1837,-0.1837,0,-0.1734,-0.1734,-0.1768,-0.1772,-0.1784,-0.1804,-0.1818,-0.187,-0.1889,-0.1958,-0.1964,-0.1985,-0.2004,-0.197,-0.1955,-0.1912,-0.1857,-0.1865,-0.1875,-0.1858,-0.1847,-0.1789,-0.1762,-0.1874,-0.1874,-0.1874,-0.1874,0,-0.1681,-0.1694,-0.1701,-0.1715,-0.1728,-0.1747,-0.1774,-0.1795,-0.1862,-0.1906,-0.196,-0.1988,-0.201,-0.2006,-0.1963,-0.1927,-0.1841,-0.1867,-0.1852,-0.1873,-0.1806,-0.1774,-0.1895,-0.1876,-0.1876,-0.1876,-0.1876,-0.1876,-0.163,-0.1624,-0.1633,-0.1639,-0.1656,-0.1668,-0.1664,-0.1729,-0.1772,-0.185,-0.1918,-0.2001,-0.2034,-0.2012,-0.1965,-0.1919,-0.1864,-0.1862,-0.1849,-0.1788,-0.1769,-0.1886,-0.1871,-0.1871,-0.1871,-0.1871,-0.1871,0,-0.1554,-0.1552,-0.1555,-0.1558,-0.1547,-0.1584,-0.1612,-0.1617,-0.1662,-0.1816,-0.1886,-0.2048,-0.2037,-0.2047,-0.2022,-0.1931,-0.1855,-0.185,-0.1784,-0.1755,-0.1872,-0.1893,-0.1881,-0.1881,-0.1881,-0.1881,-0.1881,-0.1881,-0.1511,-0.1479,-0.1482,-0.1435,-0.1441,-0.1406,-0.1405,-0.1453,-0.1546,-0.1731,-0.1913,-0.2081,-0.2172,-0.2167,-0.2044,-0.1939,-0.1823,-0.176,-0.1705,-0.1826,-0.1827,-0.1827,-0.1845,-0.1822,-0.1822,-0.1574,-0.1572,-0.1571]},{"header":{"parameterUnit":"m.s-1","parameterCategory":2,"la1":30.2991,"la2":30.254,"lo1":-89.0895,"lo2":-89.0444,"dy":0.0017,"dx":0.0017,"nx":28,"ny":28,"refTime":"2024-12-21T03:00:00:Z","depth":"0","parameterNumber":3,"parameterNumberName":"V-component_of_CURRENTS"},"data":[0,0,0,0,0,0,0,0,0,0,0,0,0,0,0,0,0,0,0,0,0,0,0,0,0,0,0,0,0,0,0,0,0,0,0,0,0,0,0,0,0,0,0,0,0,0,0,0,0,0,0,0,0,0,0,0,0,0,-0.0428,-0.0428,0,-0.0427,-0.0427,-0.0427,-0.0407,-0.0406,-0.0406,-0.0405,-0.0362,-0.0361,-0.036,0,0,0,0,0,0,0,0,0,0,0,0,0,-0.0437,-0.0436,-0.0428,-0.0428,-0.0428,-0.0427,-0.0427,-0.0427,-0.0407,-0.0406,-0.0405,-0.0405,-0.0362,-0.0361,-0.036,0,0,0,0,0,0,0,0,0,0,0,0,0,-0.0434,-0.0436,-0.0428,-0.0418,-0.0417,-0.0427,-0.0427,-0.0427,-0.0407,-0.0406,-0.0405,-0.0405,-0.0362,-0.0361,-0.036,-0.0371,0,0,-0.0357,-0.0357,0,0,0,0,0,0,0,0,-0.0434,-0.0434,-0.0419,-0.0418,-0.0417,-0.0416,-0.0414,-0.0406,-0.0407,-0.0411,-0.0405,-0.0404,-0.0376,-0.0374,-0.0377,-0.0369,-0.0367,-0.0357,-0.0357,-0.0356,-0.0356,0,0,0,0,0,0,0,-0.0434,-0.0434,-0.0428,-0.0419,-0.0418,-0.0421,-0.0419,-0.0412,-0.0398,-0.0411,-0.0409,-0.0409,-0.0375,-0.0378,-0.0375,-0.0366,-0.0357,-0.0356,-0.0356,-0.0355,-0.0369,-0.037,0,0,0,0,0,0,-0.0433,-0.0434,-0.0428,-0.0428,-0.0423,-0.0421,-0.042,-0.0417,-0.0399,-0.0395,-0.0409,-0.0408,-0.038,-0.0377,-0.0374,-0.0388,-0.0356,-0.0355,-0.0355,-0.0368,-0.0369,-0.037,0,0,0,0,0,0,-0.0434,-0.0433,-0.0428,-0.0431,-0.043,-0.0422,-0.0419,-0.0418,-0.0415,-0.0398,-0.0394,-0.0408,-0.0379,-0.0375,-0.038,-0.0386,-0.0355,-0.0354,-0.0367,-0.0369,-0.037,-0.0414,0,0,0,0,0,0,-0.0434,-0.0433,-0.0433,-0.0431,-0.043,-0.0437,-0.042,-0.0418,-0.0416,-0.0414,-0.0396,-0.0391,-0.0378,-0.0382,-0.0379,-0.0384,-0.0353,-0.0366,-0.0368,-0.037,-0.0411,-0.0417,-0.0421,0,0,0,0,0,-0.0434,-0.0441,-0.0433,-0.0433,-0.043,-0.0438,-0.0438,-0.0429,-0.0417,-0.0423,-0.0417,-0.0391,-0.0391,-0.0382,-0.0379,-0.0383,-0.0365,-0.0367,-0.0369,-0.0409,-0.0416,-0.0421,0,0,0,0,0,0,-0.0448,-0.044,-0.0431,-0.0435,-0.0436,-0.0434,-0.0439,-0.0431,-0.0431,-0.0427,-0.0407,-0.0404,-0.041,-0.0395,-0.0386,-0.0394,-0.0372,-0.0373,-0.0403,-0.0409,-0.0414,-0.0404,-0.0352,0,0,0,0,0,-0.0451,-0.0451,-0.0446,-0.045,-0.045,-0.0443,-0.0445,-0.0439,-0.0438,-0.0437,-0.0427,-0.0418,-0.0418,-0.0412,-0.041,-0.0414,-0.0389,-0.0415,-0.042,-0.0424,-0.0415,-0.0394,-0.0395,-0.0377,-0.0377,-0.0377,0,0,-0.0457,-0.0453,-0.0453,-0.0452,-0.0451,-0.0462,-0.0442,-0.0447,-0.0456,-0.0432,-0.0444,-0.0437,-0.0425,-0.0435,-0.0435,-0.042,-0.0418,-0.0427,-0.043,-0.0418,-0.0396,-0.0397,-0.0399,-0.0379,-0.0379,-0.0378,0,0,-0.0477,-0.0466,-0.0475,-0.0478,-0.0477,-0.0475,-0.0476,-0.0475,-0.0474,-0.0486,-0.0473,-0.0471,-0.047,-0.0464,-0.046,-0.049,-0.0449,-0.0489,-0.05,-0.048,-0.0481,-0.0481,-0.0458,-0.0456,-0.0487,-0.0487,-0.0487,0,-0.0486,-0.0495,-0.0481,-0.0494,-0.05,-0.0482,-0.0499,-0.05,-0.0502,-0.0502,-0.0494,-0.0492,-0.0483,-0.0487,-0.05,-0.0499,-0.0479,-0.0478,-0.0485,-0.0485,-0.0484,-0.0461,-0.0458,-0.0489,-0.0489,-0.0488,-0.0488,0,-0.0515,-0.0523,-0.053,-0.0537,-0.0543,-0.0554,-0.0551,-0.0555,-0.0548,-0.0543,-0.0545,-0.0536,-0.0529,-0.053,-0.0524,-0.052,-0.0505,-0.0497,-0.0467,-0.0488,-0.0463,-0.0459,-0.0492,-0.0492,-0.0491,-0.049,0,0,-0.0535,-0.0548,-0.0551,-0.0563,-0.0566,-0.0576,-0.0588,-0.0594,-0.0597,-0.0591,-0.0591,-0.0592,-0.057,-0.0565,-0.0552,-0.0533,-0.052,-0.0514,-0.0512,-0.0485,-0.0471,-0.0452,-0.0446,-0.0512,-0.0512,-0.0511,-0.0457,0,-0.0563,-0.0597,-0.0593,-0.0626,-0.0645,-0.0632,-0.0646,-0.0645,-0.0637,-0.0633,-0.0607,-0.0605,-0.0588,-0.0583,-0.0563,-0.053,-0.0511,-0.0535,-0.0458,-0.0456,-0.0431,-0.0441,-0.047,-0.0423,-0.0453,-0.0452,-0.0452,0,-0.0596,-0.0614,-0.0651,-0.0672,-0.0677,-0.0692,-0.0701,-0.071,-0.0692,-0.0681,-0.0659,-0.0635,-0.0608,-0.0592,-0.0532,-0.0547,-0.0512,-0.0483,-0.048,-0.0439,-0.0429,-0.0405,-0.0414,-0.0397,-0.0446,-0.0446,-0.0447,0,-0.0627,-0.0656,-0.0687,-0.0696,-0.0715,-0.0725,-0.0731,-0.0724,-0.073,-0.0704,-0.0697,-0.0656,-0.0634,-0.0583,-0.0519,-0.0526,-0.0445,-0.0448,-0.0396,-0.0394,-0.0391,-0.0389,-0.0366,-0.0405,-0.0405,-0.0405,-0.0405,0,-0.0665,-0.069,-0.0704,-0.0724,-0.076,-0.0754,-0.078,-0.0776,-0.0763,-0.0771,-0.072,-0.071,-0.0629,-0.0574,-0.0519,-0.0438,-0.0443,-0.0392,-0.0377,-0.0409,-0.0409,-0.037,-0.0352,-0.0403,-0.0404,-0.0404,-0.0404,0,-0.0702,-0.0709,-0.0749,-0.0771,-0.0779,-0.0805,-0.082,-0.0836,-0.0811,-0.0816,-0.0808,-0.0744,-0.0667,-0.0581,-0.049,-0.0439,-0.035,-0.0338,-0.0375,-0.0366,-0.0307,-0.0291,-0.0191,-0.0212,-0.0275,-0.0274,-0.0273,0,-0.0724,-0.0749,-0.0788,-0.0816,-0.0829,-0.0858,-0.088,-0.0867,-0.0879,-0.0843,-0.0848,-0.0767,-0.0723,-0.0565,-0.0451,-0.0337,-0.0317,-0.0297,-0.0315,-0.03,-0.0271,-0.0236,-0.0261,-0.0332,-0.0332,-0.0332,-0.0332,0,-0.0769,-0.0781,-0.0814,-0.0873,-0.0905,-0.0941,-0.0964,-0.098,-0.0962,-0.0957,-0.093,-0.0887,-0.0718,-0.0603,-0.0433,-0.0361,-0.0293,-0.029,-0.0269,-0.0304,-0.0269,-0.0285,-0.0368,-0.033,-0.0331,-0.0331,-0.0331,-0.0331,-0.0797,-0.0835,-0.0879,-0.0934,-0.0974,-0.102,-0.1055,-0.1073,-0.1094,-0.1097,-0.1018,-0.0969,-0.0762,-0.0525,-0.0436,-0.0277,-0.0266,-0.0257,-0.0234,-0.0197,-0.0227,-0.03,-0.025,-0.0249,-0.0249,-0.0249,-0.0248,0,-0.0838,-0.0881,-0.0939,-0.1006,-0.1064,-0.1066,-0.1112,-0.1148,-0.1189,-0.1174,-0.1147,-0.0968,-0.0784,-0.0577,-0.0315,-0.0239,-0.0234,-0.0206,-0.0187,-0.0216,-0.0282,-0.0298,-0.0262,-0.0262,-0.0262,-0.0262,-0.0262,-0.0262,-0.0861,-0.093,-0.0965,-0.107,-0.1116,-0.1189,-0.1219,-0.1268,-0.1275,-0.1269,-0.1197,-0.1131,-0.0812,-0.0355,-0.0164,-0.0155,-0.0153,-0.0121,-0.0116,-0.0185,-0.0189,-0.0193,-0.0205,-0.0151,-0.0151,-0.0091,-0.009,-0.009]}],[{"header":{"parameterUnit":"m.s-1","parameterCategory":2,"la1":30.2991,"la2":30.254,"lo1":-89.0895,"lo2":-89.0444,"dy":0.0017,"dx":0.0017,"nx":28,"ny":28,"refTime":"2024-12-21T03:00:00:Z","depth":"2","parameterNumber":2,"parameterNumberName":"U-component_of_CURRENTS"},"data":[0,0,0,0,0,0,0,0,0,0,0,0,0,0,0,0,0,0,0,0,0,0,0,0,0,0,0,0,0,0,0,0,0,0,0,0,0,0,0,0,0,0,0,0,0,0,0,0,0,0,0,0,0,0,0,0,0,0,-0.1844,-0.1844,0,-0.1869,-0.1869,-0.1869,-0.1858,-0.1858,-0.1857,-0.1857,-0.1922,-0.1925,-0.1927,0,0,0,0,0,0,0,0,0,0,0,0,0,-0.1807,-0.1808,-0.1844,-0.1844,-0.1845,-0.1869,-0.1869,-0.187,-0.1858,-0.1858,-0.1857,-0.1856,-0.1922,-0.1924,-0.1927,0,0,0,0,0,0,0,0,0,0,0,0,0,-0.1826,-0.1808,-0.1844,-0.1843,-0.1843,-0.1869,-0.1869,-0.187,-0.1858,-0.1858,-0.1857,-0.1856,-0.1921,-0.1924,-0.1927,-0.1965,0,0,-0.1938,-0.1939,0,0,0,0,0,0,0,0,-0.1825,-0.1827,-0.1842,-0.1843,-0.1843,-0.186,-0.1881,-0.1904,-0.1859,-0.1852,-0.1857,-0.1856,-0.1907,-0.1911,-0.1916,-0.1968,-0.1971,-0.1938,-0.194,-0.1942,-0.1943,0,0,0,0,0,0,0,-0.1824,-0.1826,-0.1853,-0.1843,-0.1843,-0.1848,-0.185,-0.1885,-0.1884,-0.1852,-0.1852,-0.1856,-0.1907,-0.1913,-0.1918,-0.1972,-0.1938,-0.1941,-0.1943,-0.1944,-0.2033,-0.2033,0,0,0,0,0,0,-0.1822,-0.1825,-0.1852,-0.1854,-0.1833,-0.1849,-0.1851,-0.1855,-0.1882,-0.1886,-0.1857,-0.1855,-0.1907,-0.1914,-0.192,-0.194,-0.1942,-0.1945,-0.1947,-0.2033,-0.2033,-0.2033,0,0,0,0,0,0,-0.1821,-0.1824,-0.1851,-0.1841,-0.1844,-0.1851,-0.1855,-0.1856,-0.1859,-0.1885,-0.1889,-0.1859,-0.1907,-0.1915,-0.194,-0.1943,-0.1946,-0.1949,-0.2032,-0.2033,-0.2033,-0.1997,0,0,0,0,0,0,-0.182,-0.1824,-0.1824,-0.1841,-0.1845,-0.1862,-0.1856,-0.1857,-0.1864,-0.1862,-0.1889,-0.1894,-0.1907,-0.1934,-0.1943,-0.1948,-0.1952,-0.2032,-0.2032,-0.2033,-0.1998,-0.1996,-0.1995,0,0,0,0,0,-0.1819,-0.1824,-0.1824,-0.1828,-0.1846,-0.1862,-0.1865,-0.1866,-0.1865,-0.1866,-0.1879,-0.1893,-0.1944,-0.1937,-0.1948,-0.1953,-0.2032,-0.2032,-0.2033,-0.1998,-0.1996,-0.1995,0,0,0,0,0,0,-0.1809,-0.1824,-0.1824,-0.1833,-0.1844,-0.186,-0.1864,-0.1869,-0.1881,-0.188,-0.19,-0.1906,-0.1928,-0.195,-0.1942,-0.1981,-0.199,-0.1993,-0.1961,-0.1959,-0.1958,-0.1952,-0.1955,0,0,0,0,0,-0.1808,-0.1812,-0.1829,-0.1835,-0.1841,-0.1854,-0.186,-0.1864,-0.1878,-0.1882,-0.1899,-0.1921,-0.1942,-0.1956,-0.1979,-0.2007,-0.2007,-0.2017,-0.2015,-0.2014,-0.2016,-0.2014,-0.2012,-0.2036,-0.2036,-0.2036,0,0,-0.1806,-0.1814,-0.1816,-0.1832,-0.1841,-0.1854,-0.1855,-0.1867,-0.1875,-0.1891,-0.1905,-0.1919,-0.1948,-0.1967,-0.198,-0.1985,-0.2004,-0.2015,-0.2013,-0.2017,-0.2014,-0.2012,-0.201,-0.2036,-0.2036,-0.2036,0,0,-0.1807,-0.1811,-0.1817,-0.1828,-0.1843,-0.1853,-0.1857,-0.1875,-0.1877,-0.1897,-0.1904,-0.1913,-0.1956,-0.1963,-0.1976,-0.1986,-0.1995,-0.2001,-0.1991,-0.1988,-0.1986,-0.1984,-0.1963,-0.1959,-0.2001,-0.2001,-0.2001,0,-0.1804,-0.1813,-0.1821,-0.1832,-0.1841,-0.1853,-0.1865,-0.1875,-0.1896,-0.19,-0.1897,-0.1934,-0.1951,-0.1969,-0.1965,-0.1981,-0.1978,-0.1992,-0.1984,-0.1982,-0.1981,-0.196,-0.1957,-0.1999,-0.2,-0.2,-0.2,0,-0.1811,-0.1819,-0.1824,-0.184,-0.1852,-0.1863,-0.188,-0.1889,-0.1894,-0.1902,-0.1916,-0.1927,-0.1946,-0.1951,-0.1962,-0.1965,-0.1965,-0.1978,-0.1983,-0.1976,-0.1955,-0.1952,-0.1997,-0.1998,-0.1998,-0.1998,0,0,-0.18,-0.1824,-0.1825,-0.1833,-0.1856,-0.1866,-0.1883,-0.1899,-0.1908,-0.1914,-0.1921,-0.1935,-0.1934,-0.1949,-0.1957,-0.1952,-0.1925,-0.196,-0.1961,-0.1929,-0.1906,-0.1912,-0.191,-0.1938,-0.1938,-0.1938,-0.1888,0,-0.1801,-0.1818,-0.1833,-0.1849,-0.1859,-0.1877,-0.1893,-0.1909,-0.1918,-0.1928,-0.1928,-0.1941,-0.1937,-0.1942,-0.1934,-0.194,-0.1919,-0.1937,-0.1928,-0.1927,-0.1925,-0.1907,-0.1766,-0.1711,-0.1885,-0.1884,-0.1884,0,-0.1797,-0.181,-0.1825,-0.1852,-0.1859,-0.1871,-0.1893,-0.1909,-0.1928,-0.1937,-0.194,-0.1946,-0.1942,-0.1938,-0.1919,-0.1933,-0.1913,-0.1905,-0.1904,-0.1924,-0.1929,-0.1752,-0.1699,-0.1879,-0.1879,-0.188,-0.188,0,-0.1772,-0.1802,-0.181,-0.182,-0.1854,-0.1863,-0.188,-0.1904,-0.1919,-0.1937,-0.1948,-0.1947,-0.1948,-0.1929,-0.1914,-0.1917,-0.1889,-0.1892,-0.187,-0.1869,-0.1755,-0.1746,-0.1863,-0.1863,-0.1863,-0.1863,-0.1863,0,-0.1759,-0.1764,-0.1798,-0.1802,-0.1816,-0.1846,-0.1862,-0.1883,-0.1912,-0.193,-0.1945,-0.1958,-0.1948,-0.1937,-0.1913,-0.1885,-0.1885,-0.1862,-0.1859,-0.1738,-0.1729,-0.1889,-0.1893,-0.1861,-0.1862,-0.1862,-0.1862,0,-0.1719,-0.1744,-0.1755,-0.1791,-0.1801,-0.1808,-0.1848,-0.186,-0.1898,-0.1921,-0.1928,-0.1959,-0.1957,-0.1938,-0.1911,-0.1886,-0.1858,-0.1843,-0.1697,-0.168,-0.1833,-0.1835,-0.1805,-0.1805,-0.1805,-0.1805,-0.1805,0,-0.1698,-0.1698,-0.1733,-0.1738,-0.175,-0.1771,-0.1785,-0.1837,-0.1855,-0.1922,-0.1928,-0.195,-0.1962,-0.1929,-0.1875,-0.1823,-0.1854,-0.1667,-0.1655,-0.1827,-0.1828,-0.1831,-0.1834,-0.1468,-0.1465,-0.1463,-0.1461,0,-0.1646,-0.1659,-0.1667,-0.1681,-0.1694,-0.1714,-0.1741,-0.176,-0.1826,-0.1865,-0.1916,-0.1939,-0.1924,-0.1822,-0.1765,-0.1715,-0.167,-0.1623,-0.182,-0.1532,-0.1513,-0.1514,-0.1526,-0.1441,-0.1443,-0.1444,-0.1445,-0.1446,-0.1595,-0.159,-0.1599,-0.1606,-0.1624,-0.1635,-0.163,-0.1674,-0.1708,-0.1734,-0.1823,-0.1806,-0.1778,-0.1643,-0.1556,-0.1477,-0.1595,-0.1502,-0.1506,-0.1514,-0.1511,-0.1496,-0.1418,-0.1419,-0.1421,-0.1422,-0.1424,0,-0.1514,-0.1519,-0.1522,-0.1526,-0.1507,-0.1551,-0.1577,-0.1548,-0.1559,-0.1616,-0.1641,-0.149,-0.143,-0.1404,-0.1264,-0.1244,-0.1197,-0.1181,-0.1107,-0.113,-0.115,-0.1126,-0.0931,-0.0929,-0.0928,-0.0926,0,0,-0.1469,-0.1435,-0.1437,-0.1388,-0.14,-0.1351,-0.1348,-0.1329,-0.1337,-0.1313,-0.1309,-0.1387,-0.1411,-0.1176,-0.1111,-0.1008,-0.1059,-0.096,-0.136,-0.1299,-0.1317,-0.1344,-0.1336,0,0,0,0,0]},{"header":{"parameterUnit":"m.s-1","parameterCategory":2,"la1":30.2991,"la2":30.254,"lo1":-89.0895,"lo2":-89.0444,"dy":0.0017,"dx":0.0017,"nx":28,"ny":28,"refTime":"2024-12-21T03:00:00:Z","depth":"2","parameterNumber":3,"parameterNumberName":"V-component_of_CURRENTS"},"data":[0,0,0,0,0,0,0,0,0,0,0,0,0,0,0,0,0,0,0,0,0,0,0,0,0,0,0,0,0,0,0,0,0,0,0,0,0,0,0,0,0,0,0,0,0,0,0,0,0,0,0,0,0,0,0,0,0,0,-0.0359,-0.0359,0,-0.0357,-0.0357,-0.0357,-0.0337,-0.0337,-0.0336,-0.0336,-0.0293,-0.0293,-0.0292,0,0,0,0,0,0,0,0,0,0,0,0,0,-0.0367,-0.0367,-0.0359,-0.0359,-0.0358,-0.0357,-0.0357,-0.0357,-0.0337,-0.0337,-0.0336,-0.0335,-0.0294,-0.0293,-0.0292,0,0,0,0,0,0,0,0,0,0,0,0,0,-0.0364,-0.0367,-0.0359,-0.0348,-0.0347,-0.0357,-0.0357,-0.0357,-0.0337,-0.0337,-0.0336,-0.0335,-0.0294,-0.0293,-0.0292,-0.0302,0,0,-0.0289,-0.0289,0,0,0,0,0,0,0,0,-0.0364,-0.0364,-0.035,-0.0349,-0.0348,-0.0346,-0.0344,-0.0336,-0.0338,-0.0342,-0.0336,-0.0335,-0.0308,-0.0306,-0.0308,-0.03,-0.0298,-0.0289,-0.0288,-0.0288,-0.0288,0,0,0,0,0,0,0,-0.0365,-0.0364,-0.0358,-0.035,-0.0349,-0.0351,-0.035,-0.0343,-0.0329,-0.0341,-0.034,-0.0339,-0.0307,-0.0309,-0.0307,-0.0297,-0.0289,-0.0288,-0.0288,-0.0287,-0.0302,-0.0303,0,0,0,0,0,0,-0.0364,-0.0364,-0.0358,-0.0358,-0.0354,-0.0352,-0.035,-0.0348,-0.0329,-0.0326,-0.034,-0.0338,-0.0311,-0.0308,-0.0305,-0.032,-0.0288,-0.0287,-0.0287,-0.0301,-0.0302,-0.0303,0,0,0,0,0,0,-0.0364,-0.0363,-0.0358,-0.0361,-0.036,-0.0352,-0.035,-0.0348,-0.0346,-0.0329,-0.0325,-0.0339,-0.031,-0.0306,-0.0312,-0.0318,-0.0287,-0.0286,-0.03,-0.0301,-0.0303,-0.0347,0,0,0,0,0,0,-0.0364,-0.0363,-0.0364,-0.0361,-0.036,-0.0368,-0.0351,-0.0349,-0.0347,-0.0345,-0.0327,-0.0323,-0.0309,-0.0314,-0.0311,-0.0316,-0.0285,-0.0299,-0.03,-0.0302,-0.0344,-0.035,-0.0355,0,0,0,0,0,-0.0365,-0.0372,-0.0364,-0.0364,-0.0361,-0.0368,-0.0369,-0.036,-0.0348,-0.0354,-0.0349,-0.0323,-0.0323,-0.0314,-0.0311,-0.0315,-0.0298,-0.03,-0.0302,-0.0342,-0.0349,-0.0354,0,0,0,0,0,0,-0.0379,-0.037,-0.0362,-0.0366,-0.0367,-0.0365,-0.037,-0.0362,-0.0363,-0.0358,-0.0339,-0.0335,-0.0342,-0.0327,-0.0318,-0.0326,-0.0304,-0.0306,-0.0336,-0.0342,-0.0347,-0.0338,-0.0284,0,0,0,0,0,-0.0382,-0.0382,-0.0377,-0.0381,-0.0381,-0.0374,-0.0376,-0.0371,-0.0369,-0.0368,-0.0359,-0.035,-0.035,-0.0344,-0.0343,-0.0347,-0.0322,-0.0348,-0.0353,-0.0357,-0.0349,-0.0328,-0.033,-0.031,-0.031,-0.031,0,0,-0.0388,-0.0384,-0.0384,-0.0384,-0.0382,-0.0393,-0.0374,-0.0378,-0.0388,-0.0364,-0.0376,-0.0369,-0.0358,-0.0368,-0.0368,-0.0353,-0.0352,-0.036,-0.0364,-0.0352,-0.0331,-0.0332,-0.0334,-0.0312,-0.0311,-0.0311,0,0,-0.0409,-0.0398,-0.0407,-0.041,-0.0409,-0.0407,-0.0408,-0.0408,-0.0406,-0.0419,-0.0406,-0.0405,-0.0404,-0.0397,-0.0393,-0.0424,-0.0384,-0.0423,-0.0435,-0.0416,-0.0417,-0.0417,-0.0395,-0.0394,-0.0421,-0.0421,-0.0421,0,-0.0418,-0.0427,-0.0413,-0.0426,-0.0432,-0.0414,-0.0432,-0.0432,-0.0435,-0.0435,-0.0427,-0.0426,-0.0417,-0.0421,-0.0434,-0.0433,-0.0414,-0.0412,-0.0421,-0.0421,-0.0421,-0.0398,-0.0395,-0.0423,-0.0423,-0.0423,-0.0422,0,-0.0447,-0.0455,-0.0462,-0.0469,-0.0475,-0.0487,-0.0483,-0.0488,-0.0481,-0.0477,-0.048,-0.0471,-0.0464,-0.0466,-0.0459,-0.0456,-0.0441,-0.0433,-0.0402,-0.0425,-0.04,-0.0397,-0.0426,-0.0426,-0.0425,-0.0424,0,0,-0.0468,-0.048,-0.0483,-0.0495,-0.0498,-0.0508,-0.0521,-0.0527,-0.053,-0.0525,-0.0526,-0.0527,-0.0507,-0.0501,-0.0489,-0.0471,-0.0459,-0.0451,-0.0449,-0.0424,-0.0413,-0.0393,-0.0387,-0.0451,-0.0451,-0.0451,-0.0399,0,-0.0496,-0.053,-0.0526,-0.0559,-0.0577,-0.0565,-0.0579,-0.0578,-0.057,-0.0567,-0.0543,-0.0542,-0.0525,-0.0521,-0.0501,-0.0469,-0.0451,-0.0474,-0.0399,-0.0396,-0.0371,-0.0382,-0.0345,-0.0295,-0.0395,-0.0394,-0.0394,0,-0.0529,-0.0547,-0.0584,-0.0604,-0.061,-0.0625,-0.0634,-0.0643,-0.0626,-0.0616,-0.0596,-0.0573,-0.0547,-0.0531,-0.0473,-0.0488,-0.0454,-0.0425,-0.0422,-0.0381,-0.0369,-0.0287,-0.0284,-0.0387,-0.0388,-0.0388,-0.0389,0,-0.0561,-0.0589,-0.0621,-0.0629,-0.0647,-0.0658,-0.0665,-0.0658,-0.0665,-0.064,-0.0634,-0.0595,-0.0574,-0.0525,-0.0462,-0.0468,-0.039,-0.0392,-0.0341,-0.0339,-0.028,-0.0274,-0.0352,-0.0352,-0.0352,-0.0352,-0.0352,0,-0.0599,-0.0624,-0.0638,-0.0658,-0.0694,-0.0688,-0.0714,-0.0711,-0.0699,-0.0707,-0.0658,-0.0649,-0.0571,-0.0517,-0.0463,-0.0383,-0.0389,-0.0337,-0.0323,-0.0297,-0.0293,-0.0349,-0.035,-0.035,-0.035,-0.0351,-0.0351,0,-0.0637,-0.0643,-0.0683,-0.0705,-0.0714,-0.0739,-0.0755,-0.0771,-0.0747,-0.0753,-0.0746,-0.0684,-0.0609,-0.0524,-0.0435,-0.0385,-0.0313,-0.0286,-0.0257,-0.024,-0.0276,-0.0279,-0.0226,-0.0225,-0.0224,-0.0223,-0.0222,0,-0.0659,-0.0684,-0.0723,-0.075,-0.0764,-0.0793,-0.0815,-0.0803,-0.0814,-0.078,-0.0785,-0.0707,-0.0661,-0.0506,-0.0375,-0.0258,-0.0284,-0.0177,-0.0186,-0.0271,-0.0262,-0.0267,-0.0272,-0.0126,-0.0125,-0.0123,-0.0122,0,-0.0704,-0.0716,-0.075,-0.0808,-0.0841,-0.0875,-0.0899,-0.0914,-0.0896,-0.0889,-0.0863,-0.0818,-0.0636,-0.0476,-0.0301,-0.0229,-0.0191,-0.0151,-0.0234,-0.0171,-0.0174,-0.0166,-0.0175,-0.0112,-0.0113,-0.0114,-0.0114,-0.0115,-0.0733,-0.0771,-0.0815,-0.087,-0.091,-0.0954,-0.0989,-0.0988,-0.1003,-0.0967,-0.0915,-0.0809,-0.0633,-0.0363,-0.0221,-0.0076,-0.0117,-0.0083,-0.0087,-0.0093,-0.0098,-0.01,-0.0024,-0.0025,-0.0025,-0.0026,-0.0026,0,-0.0764,-0.0817,-0.0874,-0.0941,-0.0987,-0.1001,-0.1046,-0.1044,-0.1054,-0.0984,-0.0927,-0.0713,-0.0508,-0.0326,-0.0083,0.0028,0.0037,0.005,0.0039,0.0028,0.0018,0.0018,0.0123,0.0124,0.0124,0.0125,0,0,-0.0784,-0.085,-0.0884,-0.0983,-0.1037,-0.1087,-0.1116,-0.1095,-0.1042,-0.0967,-0.087,-0.0722,-0.0508,-0.0308,-0.0133,-0.0002,-0.0022,0.0021,-0.0108,-0.0152,-0.0163,-0.0063,-0.0075,0,0,0,0,0]}],[{"header":{"parameterUnit":"m.s-1","parameterCategory":2,"la1":30.2991,"la2":30.254,"lo1":-89.0895,"lo2":-89.0444,"dy":0.0017,"dx":0.0017,"nx":28,"ny":28,"refTime":"2024-12-21T03:00:00:Z","depth":"4","parameterNumber":2,"parameterNumberName":"U-component_of_CURRENTS"},"data":[0,0,0,0,0,0,0,0,0,0,0,0,0,0,0,0,0,0,0,0,0,0,0,0,0,0,0,0,0,0,0,0,0,0,0,0,0,0,0,0,0,0,0,0,0,0,0,0,0,0,0,0,0,0,0,0,0,0,-0.1258,-0.1259,0,-0.1337,-0.1338,-0.1339,-0.138,-0.138,-0.1381,-0.1381,-0.1479,-0.1481,-0.1484,0,0,0,0,0,0,0,0,0,0,0,0,0,-0.1167,-0.1168,-0.1258,-0.1259,-0.126,-0.1337,-0.1338,-0.1339,-0.138,-0.138,-0.1381,-0.1381,-0.1478,-0.1481,-0.1484,0,0,0,0,0,0,0,0,0,0,0,0,0,-0.1221,-0.1168,-0.1258,-0.1291,-0.1294,-0.1337,-0.1338,-0.1339,-0.138,-0.138,-0.1381,-0.1381,-0.1477,-0.1481,-0.1484,-0.1503,0,0,-0.1496,-0.1497,0,0,0,0,0,0,0,0,-0.1218,-0.1224,-0.1285,-0.1288,-0.1293,-0.135,-0.1342,-0.1395,-0.138,-0.1347,-0.1381,-0.1381,-0.1438,-0.1445,-0.1458,-0.1507,-0.1511,-0.1496,-0.1498,-0.15,-0.1501,0,0,0,0,0,0,0,-0.1214,-0.1221,-0.1288,-0.1286,-0.1291,-0.131,-0.1318,-0.1352,-0.139,-0.1349,-0.1353,-0.1363,-0.144,-0.1454,-0.146,-0.1513,-0.1496,-0.1499,-0.1501,-0.1503,-0.1616,-0.1617,0,0,0,0,0,0,-0.1205,-0.1218,-0.1286,-0.1291,-0.1256,-0.1311,-0.132,-0.133,-0.1389,-0.1398,-0.1363,-0.1365,-0.1447,-0.1456,-0.1464,-0.1517,-0.15,-0.1503,-0.1505,-0.1615,-0.1616,-0.1617,0,0,0,0,0,0,-0.1203,-0.121,-0.1282,-0.1257,-0.1267,-0.1313,-0.1324,-0.1332,-0.1365,-0.1399,-0.1409,-0.1391,-0.1448,-0.1459,-0.1505,-0.152,-0.1505,-0.1508,-0.1614,-0.1615,-0.1616,-0.1606,0,0,0,0,0,0,-0.12,-0.1209,-0.1223,-0.1256,-0.1268,-0.1316,-0.1324,-0.1333,-0.1371,-0.1374,-0.1426,-0.1434,-0.1449,-0.15,-0.1509,-0.1525,-0.1511,-0.1613,-0.1615,-0.1616,-0.1605,-0.1607,-0.1608,0,0,0,0,0,-0.1196,-0.1212,-0.1223,-0.1232,-0.1283,-0.1317,-0.1326,-0.1357,-0.1372,-0.1388,-0.1421,-0.1433,-0.1515,-0.1503,-0.1514,-0.1532,-0.1612,-0.1614,-0.1616,-0.1605,-0.1606,-0.1608,0,0,0,0,0,0,-0.1183,-0.1219,-0.1232,-0.1259,-0.129,-0.1325,-0.1348,-0.1369,-0.1408,-0.1419,-0.1446,-0.1457,-0.1502,-0.1521,-0.1507,-0.1569,-0.1565,-0.1569,-0.1553,-0.1555,-0.1556,-0.1546,-0.1514,0,0,0,0,0,-0.1185,-0.1206,-0.1241,-0.1264,-0.1281,-0.1318,-0.134,-0.1363,-0.1397,-0.1416,-0.145,-0.1486,-0.1515,-0.1538,-0.1568,-0.1607,-0.16,-0.1625,-0.1626,-0.1627,-0.1626,-0.1622,-0.1622,-0.1623,-0.1623,-0.1623,0,0,-0.1188,-0.121,-0.1224,-0.1263,-0.1291,-0.132,-0.1333,-0.1372,-0.1399,-0.1421,-0.1473,-0.1496,-0.1526,-0.1563,-0.1585,-0.1584,-0.1622,-0.1629,-0.1629,-0.1628,-0.1624,-0.1624,-0.1624,-0.1624,-0.1624,-0.1623,0,0,-0.1198,-0.1224,-0.1243,-0.127,-0.1313,-0.1335,-0.135,-0.1395,-0.142,-0.1467,-0.1484,-0.151,-0.1572,-0.1583,-0.1598,-0.1627,-0.1627,-0.1646,-0.1647,-0.1643,-0.1643,-0.1642,-0.1621,-0.1619,-0.1648,-0.1648,-0.1648,0,-0.1203,-0.1229,-0.1255,-0.1281,-0.1306,-0.1343,-0.1371,-0.1401,-0.1456,-0.1473,-0.1485,-0.1551,-0.1575,-0.1603,-0.1611,-0.1628,-0.1623,-0.1636,-0.1643,-0.1642,-0.1642,-0.1621,-0.1618,-0.1647,-0.1647,-0.1647,-0.1647,0,-0.122,-0.1251,-0.1266,-0.1308,-0.1337,-0.1369,-0.1408,-0.1442,-0.1475,-0.1499,-0.1542,-0.1566,-0.16,-0.1612,-0.1623,-0.1638,-0.1633,-0.1641,-0.1633,-0.164,-0.1618,-0.1616,-0.1647,-0.1647,-0.1647,-0.1647,0,0,-0.1203,-0.1266,-0.1274,-0.1299,-0.1355,-0.1379,-0.1423,-0.1465,-0.1492,-0.1534,-0.156,-0.1598,-0.1606,-0.1623,-0.1636,-0.1634,-0.162,-0.164,-0.1639,-0.1608,-0.1602,-0.1531,-0.1522,-0.1632,-0.1631,-0.1631,-0.1583,0,-0.1212,-0.1258,-0.129,-0.134,-0.1366,-0.1411,-0.1447,-0.1489,-0.1523,-0.1557,-0.1574,-0.1607,-0.1612,-0.1627,-0.1626,-0.163,-0.1616,-0.1632,-0.161,-0.1609,-0.1535,-0.1517,-0.1631,-0.1581,-0.1581,-0.158,-0.158,0,-0.121,-0.1245,-0.1292,-0.1354,-0.1371,-0.1407,-0.1463,-0.1499,-0.1546,-0.1572,-0.1596,-0.1614,-0.1625,-0.1626,-0.1616,-0.1629,-0.1614,-0.1606,-0.1604,-0.154,-0.1533,-0.1577,-0.1575,-0.1576,-0.1576,-0.1576,-0.1577,0,-0.1172,-0.1243,-0.128,-0.1303,-0.1379,-0.141,-0.145,-0.1503,-0.1532,-0.1578,-0.1597,-0.1615,-0.1626,-0.1615,-0.1606,-0.1614,-0.1584,-0.1591,-0.1504,-0.1499,-0.1582,-0.1584,-0.1568,-0.1568,-0.1568,-0.1568,-0.1568,0,-0.1152,-0.1185,-0.127,-0.129,-0.1337,-0.1394,-0.144,-0.1482,-0.1533,-0.1556,-0.1598,-0.1607,-0.1626,-0.1617,-0.1601,-0.1539,-0.1577,-0.1491,-0.1479,-0.1579,-0.158,-0.1579,-0.1581,-0.1566,-0.1567,-0.1567,-0.1567,0,-0.1096,-0.1155,-0.1202,-0.129,-0.1319,-0.135,-0.1432,-0.1455,-0.1516,-0.1543,-0.1557,-0.1599,-0.1587,-0.1588,-0.1567,-0.1521,-0.1478,-0.1447,-0.1541,-0.1538,-0.1393,-0.1396,-0.1332,-0.1329,-0.1326,-0.1324,-0.1322,0,-0.1068,-0.1088,-0.1188,-0.1216,-0.1259,-0.1319,-0.1353,-0.1433,-0.1452,-0.1525,-0.1521,-0.1543,-0.1558,-0.1455,-0.1478,-0.1424,-0.1415,-0.1375,-0.1388,-0.1373,-0.1368,-0.1375,-0.138,-0.1318,-0.1318,-0.1317,-0.1317,0,-0.1008,-0.1055,-0.1095,-0.1154,-0.1202,-0.1247,-0.1301,-0.1307,-0.1387,-0.1459,-0.1443,-0.1431,-0.1416,-0.1395,-0.1362,-0.1331,-0.1392,-0.1348,-0.1353,-0.1365,-0.1356,-0.1355,-0.1364,-0.1308,-0.1309,-0.131,-0.131,0,-0.0961,-0.0975,-0.1033,-0.1074,-0.1131,-0.1147,-0.1194,-0.1216,-0.1248,-0.1332,-0.1325,-0.1356,-0.1403,-0.1346,-0.132,-0.128,-0.1263,-0.1218,-0.123,-0.124,-0.1234,-0.1211,-0.1093,0,0,0,0,0,-0.0903,-0.0909,-0.0945,-0.0986,-0.1038,-0.1068,-0.1142,-0.119,-0.1272,-0.1229,-0.1273,-0.1258,-0.1229,-0.1247,-0.1184,-0.1277,-0.1265,-0.1199,-0.122,-0.1259,-0.1269,-0.1273,0,0,0,0,0,0,-0.0865,-0.0893,-0.0911,-0.0896,-0.0906,-0.0951,-0.0994,-0.1057,-0.1039,-0.1128,-0.1114,-0.1183,-0.1166,-0.1239,-0.1156,-0.1161,-0.1149,-0.1227,-0.1224,-0.1254,-0.1263,-0.1271,-0.1278,0,0,0,0,0]},{"header":{"parameterUnit":"m.s-1","parameterCategory":2,"la1":30.2991,"la2":30.254,"lo1":-89.0895,"lo2":-89.0444,"dy":0.0017,"dx":0.0017,"nx":28,"ny":28,"refTime":"2024-12-21T03:00:00:Z","depth":"4","parameterNumber":3,"parameterNumberName":"V-component_of_CURRENTS"},"data":[0,0,0,0,0,0,0,0,0,0,0,0,0,0,0,0,0,0,0,0,0,0,0,0,0,0,0,0,0,0,0,0,0,0,0,0,0,0,0,0,0,0,0,0,0,0,0,0,0,0,0,0,0,0,0,0,0,0,-0.0072,-0.0073,0,-0.0083,-0.0083,-0.0083,-0.007,-0.007,-0.0069,-0.0069,-0.0052,-0.0052,-0.0052,0,0,0,0,0,0,0,0,0,0,0,0,0,-0.0063,-0.0063,-0.0072,-0.0073,-0.0073,-0.0083,-0.0083,-0.0083,-0.007,-0.007,-0.0069,-0.0069,-0.0052,-0.0052,-0.0052,0,0,0,0,0,0,0,0,0,0,0,0,0,-0.007,-0.0063,-0.0072,-0.0067,-0.0067,-0.0083,-0.0083,-0.0083,-0.0071,-0.007,-0.0069,-0.0068,-0.0052,-0.0052,-0.0052,-0.0067,0,0,-0.0053,-0.0053,0,0,0,0,0,0,0,0,-0.0069,-0.007,-0.0068,-0.0068,-0.0067,-0.0074,-0.0073,-0.0076,-0.0071,-0.007,-0.0069,-0.0068,-0.0058,-0.0057,-0.0061,-0.0066,-0.0066,-0.0053,-0.0053,-0.0053,-0.0053,0,0,0,0,0,0,0,-0.0069,-0.007,-0.0077,-0.0068,-0.0068,-0.0072,-0.0072,-0.0074,-0.0067,-0.007,-0.0069,-0.007,-0.0057,-0.0062,-0.0061,-0.0065,-0.0053,-0.0053,-0.0053,-0.0053,-0.0094,-0.0095,0,0,0,0,0,0,-0.0067,-0.0069,-0.0076,-0.0077,-0.0066,-0.0072,-0.0072,-0.0073,-0.0068,-0.0066,-0.007,-0.0069,-0.0062,-0.0061,-0.006,-0.0087,-0.0053,-0.0053,-0.0053,-0.0093,-0.0095,-0.0096,0,0,0,0,0,0,-0.0066,-0.0067,-0.0076,-0.0073,-0.0074,-0.0073,-0.0074,-0.0074,-0.0076,-0.0069,-0.0066,-0.0072,-0.0061,-0.006,-0.0076,-0.0086,-0.0053,-0.0053,-0.0092,-0.0094,-0.0095,-0.0135,0,0,0,0,0,0,-0.0066,-0.0067,-0.007,-0.0073,-0.0074,-0.0089,-0.0075,-0.0074,-0.0077,-0.0076,-0.007,-0.0068,-0.0061,-0.0076,-0.0076,-0.0085,-0.0053,-0.0091,-0.0093,-0.0095,-0.0132,-0.0138,-0.0142,0,0,0,0,0,-0.0066,-0.0074,-0.007,-0.0071,-0.0077,-0.009,-0.0092,-0.0088,-0.0078,-0.0086,-0.0088,-0.0068,-0.0088,-0.0077,-0.0077,-0.0086,-0.009,-0.0092,-0.0095,-0.013,-0.0136,-0.0142,0,0,0,0,0,0,-0.0074,-0.0074,-0.0069,-0.0077,-0.0084,-0.0088,-0.0095,-0.0091,-0.0099,-0.0096,-0.0086,-0.0085,-0.0102,-0.0093,-0.0081,-0.0106,-0.0084,-0.0087,-0.0111,-0.0117,-0.0122,-0.0116,-0.0053,0,0,0,0,0,-0.0076,-0.0081,-0.0083,-0.0091,-0.0093,-0.0094,-0.0098,-0.0096,-0.0102,-0.0104,-0.0104,-0.0105,-0.0113,-0.0114,-0.012,-0.0135,-0.0116,-0.014,-0.0145,-0.0149,-0.0146,-0.0136,-0.0139,-0.0104,-0.0104,-0.0104,0,0,-0.0081,-0.0082,-0.0085,-0.0093,-0.0095,-0.0111,-0.0095,-0.0104,-0.0119,-0.0102,-0.0124,-0.0124,-0.0123,-0.0143,-0.0148,-0.0134,-0.0151,-0.0153,-0.0156,-0.015,-0.0139,-0.0142,-0.0145,-0.0106,-0.0105,-0.0105,0,0,-0.0099,-0.0095,-0.0106,-0.0114,-0.0121,-0.0124,-0.0127,-0.0135,-0.0138,-0.0161,-0.0154,-0.0162,-0.0175,-0.0177,-0.0178,-0.0215,-0.0181,-0.0215,-0.0232,-0.0223,-0.0226,-0.0228,-0.0211,-0.0211,-0.0214,-0.0215,-0.0215,0,-0.0105,-0.0119,-0.0113,-0.0129,-0.0139,-0.0131,-0.0151,-0.0158,-0.0172,-0.0179,-0.0172,-0.0193,-0.0191,-0.021,-0.0223,-0.0225,-0.0211,-0.0208,-0.0229,-0.023,-0.0231,-0.0213,-0.0213,-0.0217,-0.0216,-0.0216,-0.0216,0,-0.0132,-0.0146,-0.0155,-0.017,-0.0182,-0.0198,-0.0205,-0.0217,-0.0219,-0.0222,-0.0241,-0.0243,-0.025,-0.0254,-0.025,-0.0261,-0.0245,-0.0238,-0.0209,-0.0237,-0.0217,-0.0215,-0.022,-0.0219,-0.0218,-0.0218,0,0,-0.0142,-0.0169,-0.0173,-0.0189,-0.0205,-0.0219,-0.0242,-0.0261,-0.0273,-0.0281,-0.0296,-0.0311,-0.0298,-0.0299,-0.0292,-0.0284,-0.0283,-0.0265,-0.0263,-0.0241,-0.0256,-0.0219,-0.0213,-0.0277,-0.0277,-0.0277,-0.0239,0,-0.0167,-0.0205,-0.0211,-0.0252,-0.0273,-0.0275,-0.0299,-0.0312,-0.0317,-0.033,-0.0321,-0.0334,-0.0319,-0.0322,-0.0313,-0.029,-0.0281,-0.0293,-0.0238,-0.0236,-0.0194,-0.0211,-0.0277,-0.0238,-0.0237,-0.0237,-0.0237,0,-0.0192,-0.0216,-0.0259,-0.0295,-0.0304,-0.0327,-0.0355,-0.0374,-0.0381,-0.0381,-0.038,-0.037,-0.0363,-0.0346,-0.0311,-0.0319,-0.0292,-0.027,-0.0268,-0.0215,-0.0196,-0.0205,-0.0234,-0.0234,-0.0234,-0.0235,-0.0235,0,-0.0207,-0.025,-0.0287,-0.03,-0.0337,-0.0358,-0.0376,-0.0391,-0.0408,-0.041,-0.0414,-0.0399,-0.0391,-0.0358,-0.0307,-0.0312,-0.0258,-0.0259,-0.02,-0.0196,-0.0222,-0.0221,-0.0236,-0.0236,-0.0236,-0.0236,-0.0236,0,-0.0231,-0.0261,-0.0299,-0.032,-0.0367,-0.0379,-0.042,-0.0431,-0.0443,-0.0461,-0.0439,-0.0441,-0.0394,-0.0356,-0.0312,-0.0242,-0.026,-0.02,-0.0185,-0.0241,-0.0242,-0.0221,-0.022,-0.0235,-0.0235,-0.0235,-0.0236,0,-0.0243,-0.0267,-0.0314,-0.0359,-0.0377,-0.041,-0.0454,-0.0478,-0.0479,-0.0498,-0.05,-0.0471,-0.0416,-0.0357,-0.0293,-0.0246,-0.0186,-0.0159,-0.0214,-0.0203,-0.0131,-0.0133,-0.0096,-0.0094,-0.0093,-0.0091,-0.009,0,-0.0251,-0.0277,-0.0342,-0.0377,-0.0402,-0.0448,-0.0481,-0.0498,-0.0517,-0.0516,-0.0523,-0.0478,-0.0448,-0.0325,-0.026,-0.0159,-0.0147,-0.0112,-0.0132,-0.0128,-0.0117,-0.0121,-0.0124,-0.0088,-0.0088,-0.0087,-0.0087,0,-0.0266,-0.0292,-0.0332,-0.0404,-0.0451,-0.05,-0.0541,-0.0555,-0.0567,-0.0567,-0.0538,-0.0476,-0.0405,-0.0316,-0.0226,-0.016,-0.0132,-0.0098,-0.0101,-0.0119,-0.0119,-0.011,-0.0115,-0.0082,-0.0083,-0.0084,-0.0084,0,-0.0274,-0.0309,-0.0366,-0.0428,-0.0489,-0.0536,-0.0557,-0.0572,-0.0584,-0.0571,-0.056,-0.0483,-0.0441,-0.0315,-0.0239,-0.0158,-0.0147,-0.0127,-0.0129,-0.0133,-0.0151,-0.0156,-0.0116,0,0,0,0,0,-0.0276,-0.0324,-0.0387,-0.0458,-0.0516,-0.055,-0.0592,-0.0602,-0.0606,-0.0586,-0.0571,-0.0502,-0.0376,-0.0324,-0.0238,-0.0219,-0.0136,-0.0115,-0.0116,-0.0056,-0.0061,-0.0072,0,0,0,0,0,0,-0.0282,-0.0343,-0.0386,-0.0464,-0.0514,-0.0575,-0.0602,-0.0607,-0.059,-0.058,-0.0514,-0.0475,-0.0355,-0.0425,-0.0234,-0.021,-0.0197,-0.0056,-0.0054,-0.0053,-0.0058,-0.0062,-0.0075,0,0,0,0,0]}]]